ログ速トップ
サイトで絞り込む
SP」で検索 236199件中 1 - 50 表示
板名 タイトル レス数 更新日付 勢い
ニュース速報+ sc 【異次元のSPEED感】#今井絵理子防災大臣 誕生の可能性★2 411 2020-04-10 05:23 1574
家庭用ゲーム sc 【Switch】Splatoon2/スプラトゥーン2 サーモンランスレ wave395 718 2020-04-10 05:22 123
芸スポ速報+ sc 【朗報】「SPEED」の今井絵理子、防災担当大臣にスピード出世 の可能性 284 2020-04-10 05:21 1040
スポーツ・RACE sc 【GTS】GRAN TURISMO SPORT【Part.186】 84 2020-04-10 05:14 24
家庭用ゲーム sc 【Switch】Splatoon2/スプラトゥーン2イカ1447杯目 173 2020-04-10 05:04 203
テレビドラマ sc 【テレ朝ドラマSP】不協和音 炎の刑事VS氷の検事【田中圭・中村倫也】 425 2020-04-10 04:53 8
ネットwatch sc 【PC】SPYGEA専用スレpart55 510 2020-04-10 04:52 26
ニュー速(嫌儲) sc 【朗報】 今井絵理子氏、防災担当大臣にSPEED出世 [875588627] 654 2020-04-10 04:50 1966
家庭用ゲーム sc 【Switch】Splatoon2/スプラトゥーン2晒しスレ5杯目 758 2020-04-10 04:42 10
PCゲーム sc Train Fever/Transport Fever/2 総合【9路線目】 510 2020-04-10 04:36 8
サバゲー sc 【UAB】アンチスレ16クイック!【speedQB】 338 2020-04-10 04:31 10
家庭用ゲーム sc 【Switch】大乱闘スマッシュブラザーズ SPECIAL 1245スレ目【スマブラSP】 608 2020-04-10 04:29 525
PCゲーム sc Slay the Spire Ascension34 783 2020-04-10 04:29 33
就職 sc 新安全警備保障(SASP) Part3 82 2020-04-10 04:28 0
スマホゲーム sc ミトラスフィア -MITRASPHERE- part367 803 2020-04-10 04:23 94
裏技・改造 sc pspo2i 体験版 起動スレ 532 2020-04-10 04:20 0
携帯ゲーソフト sc PSP、このゲームは買っとけ!part65 470 2020-04-10 04:18 1
家庭用ゲーム sc 【Switch】大乱闘スマッシュブラザーズ SPECIAL 1242スレ目【スマブラSP】 17 2020-04-10 04:11 3
ポータブルAV sc 【SONY】完全ワイヤレスステレオイヤホン Part27【WF-1000XM3,WF-1000X,WF-SP900,WF-SP700N,XEA20】 626 2020-04-10 04:09 3
なんでも実況J sc 就活部+大学延期部🌵🌵 合体2時間SP 4 2020-04-10 03:57 4734
スポーツ・RACE sc 【PS4】 NBA 2K20 part.4 【2K Sports】 604 2020-04-10 03:57 12
ニュー速(嫌儲) sc 「蒼き流星SPTレイズナー」はもうちょっと評価されても良くないか?V-MAXの演出とか最高だっただろ [668970678] 368 2020-04-10 03:56 1008
なんでも実況J sc 就活部+大学延期部🌵 合体SP 811 2020-04-10 03:55 19319
家庭用ゲーム sc 【Switch】Splatoon2/スプラトゥーン2 サーモンラン 初心者スレ wave17 182 2020-04-10 03:52 11
携帯ゲーRPG sc 【PSP/VITA】クリミナルガールズ総合おしおき81回目 423 2020-04-10 03:50 12
iPhone sc 【レース】Asphalt アスファルト9 【A9専用】 404 2020-04-10 03:50 17
家庭用ゲーム sc 【Switch】Splatoon2/スプラトゥーン2 S帯スレ73【質問/雑談/愚痴】 462 2020-04-10 03:34 55
iPhone sc 【レース】Asphalt アスファルト総合73 【A9 A8 AXtreme】 718 2020-04-10 03:30 17
携帯ゲーRPG sc 【PSP/VITA】俺の屍を越えてゆけ 総合148代目[俺屍] 570 2020-04-10 03:22 1
家庭用ゲーム sc 【Switch】大乱闘スマッシュブラザーズSP リーク検証&DLC予想スレpart162 174 2020-04-10 03:15 77
同性愛サロン sc 【連ドラ】ゲイがTVドラマを語るわ・第55話【SP】 471 2020-04-10 03:12 12
携帯ゲーソフト sc 【PSP/VITA/PS4】ダンガンロンパ総合part813 718 2020-04-10 03:08 35
ブラウザゲーム sc 【Yモバゲ】100万人の三國志 Special part133 621 2020-04-10 03:05 4
バイク車種・メーカー sc 【原二】YBR125/G/K/SP/FI/KG 其70 【天剣】 781 2020-04-10 03:03 1
携帯ゲーRPG sc 【PSP】Fate/EXTRA総合 275スレ 689 2020-04-10 03:02 5
携帯ゲーRPG sc 【PSP】エルミナージュIII part69 364 2020-04-10 02:56 3
家庭用ゲーム sc 【switch】大乱闘スマッシュブラザーズ晒しスレ 3【スマブラsp】 958 2020-04-10 02:55 9
ハード・業界 sc 【ゴキ悲報】GoogleStadia Pro 本日から2ヶ月間無料。4K60fps遊び放題で月850円ガクガク30fpsPS4死亡! 18 2020-04-10 02:54 63
番組ch(TX) sc 【宝くじ売り場までも】WBS☆SPORTSウオッチャー10966【自粛に】 494 2020-04-10 02:53 3497
メンタルヘルス sc 【HSP】敏感すぎてすぐに動揺してしまう26 539 2020-04-10 02:52 23
伝説の sc 【20周年】SPEEDスレ【移転】 142 2020-04-10 02:52 0
車種・メーカー sc 【マツダ】SKY-Xはなぜ失敗したのか 18【SPCCI】 554 2020-04-10 02:52 56
HR・HM sc 【ブラジル】SEPULTURA/SOULFLY/CAVALERA CONSPIRACY【代表】 244 2020-04-10 02:52 0
xsports sc X-Sporsはじめた頃の自分に一言 14 2020-04-10 02:46 0
テレビドラマ sc 【小日向文世】プレミアムドラマ「70才、初めて産みますセブンティウイザン 。」【竹下景子】NHK BSP 44 2020-04-10 02:46 9
携帯ゲーソフト sc 【PSP・Vita】ゲームアーカイブス368【PS3】 665 2020-04-10 02:42 6
なんでも実況J sc Spotify広告「ごきげんよう、壇蜜です。最近恋していますk(電源ピッ」 1 2020-04-10 02:40 0
スポーツ・RACE sc 【PS3】 GRID AUTOSPORT 547 2020-04-10 02:34 0
携帯ゲーソフト sc 【PSP・Vita】PlayStation Store総合60【PSストア】 219 2020-04-10 02:33 6
写真撮影 sc SPP撮影会について語ろう Part.2 291 2020-04-10 02:25 2

スポンサードリンク